Home   Weather   Tarija   Past weeks

Flag for Bolivia Past Weather in Tarija, Bolivia — Yesterday and Last 2 Weeks

Now
54 °F

Mostly cloudy.


Feels Like: 54 °F
Forecast: 42 / 64 °F
Wind: No wind

Location: Tarija Airport

Current Time: Apr 27, 2017 at 11:13:15 am

Latest Report: Apr 27, 2017 at 10:00 am


Visibility: N/A

Pressure: 30.33 "Hg (24.23 "Hg at 1874m altitude)

Humidity: 63%

Dew Point: 41 °F

Location of TarijaLocation

Past Weather in Tarija — Graph

°F

Tarija Temperature Yesterday

Maximum temperature yesterday: 64 °F (at 12:00 pm)
Minimum temperature yesterday: 46 °F (at 9:00 pm)
Average temperature yesterday: 56 °F

High & Low Weather Summary for the Past Weeks

 TemperatureHumidityPressure
High86 °F (Apr 25, 4:00 pm)100% (Apr 17, 6:00 am)30.36 "Hg (Apr 17, 6:00 am)
Low45 °F (Apr 20, 6:00 am)17% (Apr 25, 4:00 pm)29.71 "Hg (Apr 25, 3:00 pm)
Average62 °F70%30.08 "Hg
* Reported Apr 12 10:00 am — Apr 27 10:00 am, Tarija, Weather by CustomWeather, © 2017

Note: Actual official high and low records may vary slightly from our data, if they occured in-between our weather recording intervals... More about our weather records

Advertising

Tarija Weather History for the Previous 24 Hours

Scroll right to see more
 ConditionsComfort  
Time TempWeatherWind HumidityBarometerVisibility
10:00 am
Thu, Apr 27
54 °FMostly cloudy.No wind63%30.33 "HgN/A
9:00 am52 °FMostly cloudy.No wind67%30.33 "HgN/A
8:00 am50 °FMostly cloudy.No wind76%30.30 "HgN/A
7:00 am48 °FMostly cloudy.No wind82%30.30 "HgN/A
6:00 am46 °FPartly cloudy.No wind87%30.30 "HgN/A
11:00 pm
Wed, Apr 26
46 °FScattered showers. Mostly cloudy.5 mph87%30.30 "Hg3 mi
10:00 pm46 °FScattered showers. Mostly cloudy.7 mph87%30.30 "Hg3 mi
9:00 pm46 °FScattered showers. Mostly cloudy.9 mph87%30.27 "Hg4 mi
8:00 pm48 °FMostly cloudy.9 mph82%30.21 "HgN/A
7:00 pm50 °FMostly cloudy.12 mph76%30.18 "HgN/A
6:00 pm52 °FMostly cloudy.12 mph72%30.15 "HgN/A
5:00 pm54 °FMostly cloudy.7 mph67%30.12 "HgN/A
4:00 pm57 °FMostly cloudy.12 mph67%30.09 "HgN/A
3:00 pm59 °FPartly sunny.14 mph59%30.07 "HgN/A
2:00 pm61 °FScattered clouds.14 mph59%30.07 "HgN/A
1:00 pm64 °FScattered clouds.12 mph56%30.09 "HgN/A
12:00 pm64 °FScattered clouds.9 mph60%30.09 "HgN/A
11:00 am63 °FScattered clouds.7 mph64%30.12 "HgN/A
Weather by CustomWeather, © 2017

See weather overviewHow to use our weather pages